Location: Bartlow
(52.0833°N, 0.3167°E)
Time: 05:29:35
(UTC+00:00)

Meteor 1-20 Rocket - Pass Details

Date: 26 September 2023
Orbit: 818 x 892 km, 81.2° (Epoch: 29 November)

Event Time Altitude Azimuth Distance (km) Brightness Sun altitude
Rises 03:15:23 0° 344° (NNW) 3,509 7.6 -23.6°
Reaches altitude 10° 03:17:54 10° 340° (NNW) 2,560 6.8 -23.2°
Maximum altitude 03:23:33 54° 265° (W) 1,057 4.3 -22.5°
Enters shadow 03:24:35 48° 228° (SW) 1,138 4.4 -22.3°
